DW7898 Weather Reports


time (UTC)temp
C
wind
direction
speed
KPH
gust
KPH
rain 1hr
cm
rain 24hr
cm
rain mn
cm
humidity
%
barometer
mb
20220124103344 4 55 0.0 0.0 0.00 0.00 0.00 83 1031.4
20220124102340 4 56 0.0 0.0 0.00 0.00 0.00 85 1031.4
20220124101341 3 56 0.0 0.0 0.00 0.00 0.00 85 1031.4
20220124100340 3 56 0.0 0.0 0.00 0.00 0.00 85 1031.4
20220124095339 3 56 0.0 0.0 0.00 0.00 0.00 87 1031.5
20220124094340 3 56 0.0 0.0 0.00 0.00 0.00 88 1031.4
20220124093340 2 38 0.0 0.0 0.00 0.00 0.00 89 1031.4
20220124092355 2 38 0.0 0.0 0.00 0.00 0.00 88 1031.4
20220124091339 1 38 0.0 0.0 0.00 0.00 0.00 88 1031.3
20220124090343 1 38 0.0 0.0 0.00 0.00 0.00 88 1031.2
20220124085342 1 40 0.0 0.0 0.00 0.00 0.00 88 1031.2
20220124084341 1 42 0.0 0.0 0.00 0.00 0.00 88 1031.3
20220124083339 0 43 0.0 0.0 0.00 0.00 0.00 88 1031.3
20220124082346 0 41 0.0 0.0 0.00 0.00 0.00 88 1031.1
20220124081356 0 41 0.0 0.0 0.00 0.00 0.00 88 1031.0
20220124080344 0 41 0.0 0.0 0.00 0.00 0.00 88 1031.0
20220124075354 0 41 0.0 0.0 0.00 0.00 0.00 88 1030.8
20220124074341 0 41 0.0 0.0 0.00 0.00 0.00 88 1030.7
20220124073340 0 41 0.0 0.0 0.00 0.00 0.00 88 1030.6
20220124072348 0 41 0.0 0.0 0.00 0.00 0.00 88 1030.3
20220124071346 0 41 0.0 0.0 0.00 0.00 0.00 88 1030.3
20220124070349 0 42 0.0 0.0 0.00 0.00 0.00 88 1030.1
20220124065357 0 40 0.0 0.0 0.00 0.00 0.00 88 1030.0
20220124064342 0 39 0.0 0.0 0.00 0.00 0.00 88 1030.0
20220124063347 0 39 0.0 0.0 0.00 0.00 0.00 88 1029.9
20220124062344 0 39 0.0 0.0 0.00 0.00 0.00 88 1029.8
20220124061341 0 39 0.0 0.0 0.00 0.00 0.00 88 1029.6
20220124060341 0 39 0.0 0.0 0.00 0.00 0.00 88 1029.7
20220124055341 0 39 0.0 0.0 0.00 0.00 0.00 88 1029.4
20220124054345 0 39 0.0 0.0 0.00 0.00 0.00 87 1029.4
20220124053348 0 39 0.0 0.0 0.00 0.00 0.00 87 1029.3
20220124052345 0 39 0.0 0.0 0.00 0.00 0.00 87 1029.2
20220124051346 0 39 0.0 0.0 0.00 0.00 0.00 87 1029.1
20220124050341 0 39 0.0 0.0 0.00 0.00 0.00 88 1029.3
20220124045347 0 39 0.0 0.0 0.00 0.00 0.00 87 1029.1
20220124044342 0 39 0.0 0.0 0.00 0.00 0.00 88 1029.1
20220124043351 0 39 0.0 0.0 0.00 0.00 0.00 87 1029.0
20220124042344 0 39 0.0 0.0 0.00 0.00 0.00 87 1029.1
20220124041353 0 39 0.0 0.0 0.00 0.00 0.00 87 1029.0
20220124040355 0 39 0.0 0.0 0.00 0.00 0.00 87 1029.0
20220124035358 0 41 0.0 0.0 0.00 0.00 0.00 87 1028.9
20220124034339 0 40 0.0 0.0 0.00 0.00 0.00 88 1028.9
20220124033345 1 35 0.0 0.0 0.00 0.00 0.00 87 1028.9
20220124032338 1 36 0.0 0.0 0.00 0.00 0.00 88 1028.9
20220124031338 1 35 0.0 0.0 0.00 0.00 0.00 87 1028.8
20220124030338 1 35 0.0 0.0 0.00 0.00 0.00 87 1029.0
20220124025356 1 35 0.0 0.0 0.00 0.00 0.00 87 1029.1
20220124024338 1 35 0.0 0.0 0.00 0.00 0.00 87 1029.0
20220124023338 1 35 0.0 0.0 0.00 0.00 0.00 87 1029.0
20220124022341 1 35 0.0 0.0 0.00 0.00 0.00 87 1029.1
20220124021352 1 35 0.0 0.0 0.00 0.00 0.00 87 1029.1
20220124020355 1 35 0.0 0.0 0.00 0.00 0.00 86 1029.0
20220124015359 1 35 0.0 0.0 0.00 0.00 0.00 86 1029.0
20220124014349 1 35 0.0 0.0 0.00 0.00 0.00 86 1029.1
20220124013344 1 31 0.0 0.0 0.00 0.00 0.00 85 1029.0
20220124012343 1 31 0.0 0.0 0.00 0.00 0.00 85 1029.0
20220124011349 2 31 0.0 0.0 0.00 0.00 0.00 85 1029.1
20220124010358 2 31 0.0 0.0 0.00 0.00 0.00 85 1029.1
20220124005358 2 31 0.0 0.0 0.00 0.00 0.00 85 1029.0
20220124004338 2 31 0.0 0.0 0.00 0.00 0.00 86 1029.2
20220124003343 2 31 0.0 0.0 0.00 0.00 0.00 85 1029.1
20220124002343 2 31 0.0 0.0 0.00 0.00 0.00 85 1029.2
20220124001341 2 31 0.0 0.0 0.00 0.00 0.00 85 1029.2
20220124000343 2 1 0.0 0.0 0.00 0.00 0.00 85 1029.2
20220123235338 2 341 0.0 0.0 0.00 0.00 0.00 85 1029.3
20220123234341 2 0 0.0 0.0 0.00 0.00 0.00 84 1029.4
20220123233344 2 0 0.0 0.0 0.00 0.00 0.00 84 1029.4
20220123232356 3 0 0.0 0.0 0.00 0.00 0.00 84 1029.5
20220123231337 3 0 0.0 0.0 0.00 0.00 0.00 84 1029.6
20220123230356 3 0 0.0 0.0 0.00 0.00 0.00 83 1029.7
20220123225339 3 0 0.0 0.0 0.00 0.00 0.00 83 1029.7
20220123224344 3 0 0.0 0.0 0.00 0.00 0.00 83 1029.6
20220123223345 3 0 0.0 0.0 0.00 0.00 0.00 83 1029.5
20220123222344 3 0 0.0 0.0 0.00 0.00 0.00 82 1029.4
20220123221344 3 0 0.0 0.0 0.00 0.00 0.00 82 1029.3
20220123220347 3 0 0.0 0.0 0.00 0.00 0.00 83 1029.3
20220123215339 3 0 0.0 0.0 0.00 0.00 0.00 82 1029.2
20220123214342 4 0 0.0 0.0 0.00 0.00 0.00 82 1029.2
20220123213355 4 0 0.0 0.0 0.00 0.00 0.00 82 1029.1
20220123212339 5 0 0.0 0.0 0.00 0.00 0.00 82 1029.1
20220123211340 5 0 0.0 0.0 0.00 0.00 0.00 81 1029.2
20220123210345 5 0 0.0 0.0 0.00 0.00 0.00 81 1029.1
20220123205337 5 0 0.0 0.0 0.00 0.00 0.00 80 1028.9
20220123204340 5 0 0.0 0.0 0.00 0.00 0.00 80 1028.9
20220123203342 5 0 0.0 0.0 0.00 0.00 0.00 79 1028.7
20220123202341 5 0 0.0 0.0 0.00 0.00 0.00 79 1028.9
20220123201355 6 0 0.0 0.0 0.00 0.00 0.00 79 1028.7
20220123200338 6 0 0.0 0.0 0.00 0.00 0.00 78 1028.5
20220123195339 6 0 0.0 0.0 0.00 0.00 0.00 78 1028.6
20220123194344 6 0 0.0 0.0 0.00 0.00 0.00 78 1028.4
20220123193357 6 0 0.0 0.0 0.00 0.00 0.00 78 1028.5
20220123192340 6 0 0.0 0.0 0.00 0.00 0.00 77 1028.3
20220123191335 6 0 0.0 0.0 0.00 0.00 0.00 77 1028.4
20220123190341 6 0 0.0 0.0 0.00 0.00 0.00 76 1028.4
20220123185343 7 0 0.0 8.0 0.00 0.00 0.00 75 1028.3
20220123184344 7 28 0.0 0.0 0.00 0.00 0.00 74 1028.3
20220123183342 8 8 0.0 1.6 0.00 0.00 0.00 74 1028.3
20220123182339 8 21 0.0 0.0 0.00 0.00 0.00 73 1028.2
20220123181343 8 44 0.0 0.0 0.00 0.00 0.00 73 1028.0
20220123180347 8 56 0.0 0.0 0.00 0.00 0.00 72 1028.1
20220123175347 9 106 0.0 0.0 0.00 0.00 0.00 72 1028.1
20220123174347 9 106 0.0 0.0 0.00 0.00 0.00 71 1027.9
20220123173348 10 110 0.0 0.0 0.00 0.00 0.00 71 1027.9
20220123172347 10 142 0.0 4.8 0.00 0.00 0.00 70 1027.8
20220123171355 10 122 0.0 6.4 0.00 0.00 0.00 70 1027.7
20220123170341 10 152 0.0 8.0 0.00 0.00 0.00 69 1027.7
20220123165345 10 149 0.0 6.4 0.00 0.00 0.00 68 1027.6
20220123164349 10 99 3.2 6.4 0.00 0.00 0.00 67 1027.5
20220123163354 10 132 3.2 8.0 0.00 0.00 0.00 67 1027.4
20220123162357 10 133 3.2 9.7 0.00 0.00 0.00 67 1027.5
20220123161341 11 113 3.2 12.9 0.00 0.00 0.00 66 1027.4
20220123160345 11 136 3.2 12.9 0.00 0.00 0.00 65 1027.4
20220123155340 11 143 4.8 12.9 0.00 0.00 0.00 64 1027.3
20220123154343 11 117 1.6 12.9 0.00 0.00 0.00 64 1027.3
20220123153346 11 130 1.6 14.5 0.00 0.00 0.00 64 1027.2
20220123152341 11 223 3.2 12.9 0.00 0.00 0.00 64 1027.3
20220123151340 11 124 6.4 14.5 0.00 0.00 0.00 64 1027.2
20220123150340 11 144 4.8 16.1 0.00 0.00 0.00 63 1027.1
20220123145341 11 119 6.4 16.1 0.00 0.00 0.00 62 1027.1
20220123144340 11 138 4.8 16.1 0.00 0.00 0.00 61 1027.1
20220123143341 12 138 6.4 12.9 0.00 0.00 0.00 57 1027.2
20220123142342 12 229 8.0 11.3 0.00 0.00 0.00 55 1027.1
20220123141344 12 188 0.0 11.3 0.00 0.00 0.00 54 1027.2
20220123140348 12 202 0.0 14.5 0.00 0.00 0.00 54 1027.2
20220123135342 12 156 0.0 9.7 0.00 0.00 0.00 53 1027.4
20220123134340 12 247 6.4 12.9 0.00 0.00 0.00 52 1027.5
20220123133346 12 219 6.4 11.3 0.00 0.00 0.00 50 1027.6
20220123132340 11 194 4.8 12.9 0.00 0.00 0.00 51 1027.7
20220123131352 12 200 4.8 11.3 0.00 0.00 0.00 51 1027.9
20220123130338 11 219 6.4 12.9 0.00 0.00 0.00 52 1028.2
20220123125341 11 210 9.7 12.9 0.00 0.00 0.00 52 1028.2
20220123124345 11 242 6.4 11.3 0.00 0.00 0.00 52 1028.3
20220123123350 11 212 6.4 9.7 0.00 0.00 0.00 52 1028.6
20220123122343 10 252 0.0 4.8 0.00 0.00 0.00 52 1028.9
20220123121352 10 247 0.0 6.4 0.00 0.00 0.00 53 1028.9
20220123120356 10 254 0.0 4.8 0.00 0.00 0.00 52 1029.0
20220123115345 9 274 0.0 0.0 0.00 0.00 0.00 54 1029.2
20220123114340 8 275 0.0 1.6 0.00 0.00 0.00 54 1029.4
20220123113343 8 290 0.0 0.0 0.00 0.00 0.00 57 1029.6
20220123112341 8 290 0.0 0.0 0.00 0.00 0.00 59 1029.8
20220123111345 7 290 0.0 0.0 0.00 0.00 0.00 63 1029.9
20220123110341 6 294 0.0 0.0 0.00 0.00 0.00 64 1030.1
20220123105340 6 294 0.0 0.0 0.00 0.00 0.00 66 1030.3
20220123104339 5 297 0.0 0.0 0.00 0.00 0.00 67 1030.4